OpenBCM V1.08-5-g2f4a (Linux)

Packet Radio Mailbox

IZ3LSV

[San Dona' di P. JN]

 Login: GUEST





  
CX2SA  > SATDIG   30.10.11 20:18l 661 Lines 21879 Bytes #999 (0) @ WW
BID : AMSATBB6604
Read: GUEST
Subj: AMSAT-BB-digest V6 604
Path: IZ3LSV<IK2XDE<DB0RES<ON0AR<UA6ADV<VE2PKT<CX2SA
Sent: 111030/1914Z @:CX2SA.LAV.URY.SA #:35446 [Minas] FBB7.00e $:AMSATBB6604
From: CX2SA@CX2SA.LAV.URY.SA
To  : SATDIG@WW

Today's Topics:

   1. Fwd: Re: New TLEs (Mark L. Hammond)
   2. SRM not heard (Sandeep Shah)
   3. New Launch (Nigel A. Gunn, W8IFF/G8IFF)
   4. Re: New Launch (i8cvs)
   5. Re: Charge for Satellite Tracking? (Kevin Gordon)
   6. Keps! new cubesats... (Carl Rimmer W8KRF)
   7. Re: Charge for Satellite Tracking? (Mark L. Hammond)
   8. Re: New Launch (Nigel A. Gunn, W8IFF/G8IFF)
   9. Re: Keps! new cubesats... (Mark L. Hammond)
  10. Re: New Launch (Mark L. Hammond)
  11. OSCAR-9 and OSCAR-11 TV News Reports (Trevor .)
  12. Trying for ARISSat-1 Contact (Farrell Winder)
  13. Re: Charge for Satellite Tracking? (Stefan Wagener)


----------------------------------------------------------------------

Message: 1
Date: Sun, 30 Oct 2011 12:45:29 -0400
From: "Mark L. Hammond" <marklhammond@xxxxx.xxx>
To: amsat-bb@xxxxx.xxx
Subject: [amsat-bb] Fwd: Re: New TLEs
Message-ID: <r4lW1h0024ltuWb054lWn0@xxxxx.xxx>
Content-Type: text/plain; charset="us-ascii"

Folks are asking..here you go.

Nobody is certain about which object is which bird....it's the way it goes
after launch :)

73,

Mark N8MH


>Date: Sun, 30 Oct 2011 11:25:12 -0400
>From: James Cutler <jwcutler@xxxxx.xxx>
>User-Agent: Mozilla/5.0 (Macintosh; Intel Mac OS X 10.6; rv:7.0.1)
Gecko/20110929 Thunderbird/7.0.1
>To: "<rax-gs@xxxxx.xxx>" <rax-gs@xxxxx.xxx>
>Subject: Re: New TLEs
>
>H is the second stage.  Here are all the keps.
>
>
>OBJECT A
>1 37849U 11061A   11302.66421759 +.00000178 +00000-0 +10000-3 0 00099
>2 37849 098.7116 238.9909 0001984 118.3667 333.6358 14.22213241000181
>OBJECT B
>1 37850U 11061B   11302.62545336 +.00000480 +00000-0 +51357-4 0 00069
>2 37850 101.6952 233.0228 0253352 289.9995 191.7441 14.77439893000169
>OBJECT C
>1 37851U 11061C   11302.94063822 +.00148715 +00000-0 +11864-1 0 00048
>2 37851 101.7071 233.4846 0255164 289.2247 068.1438 14.77565457000225
>OBJECT D
>1 37852U 11061D   11302.94064686 +.00001317 +00000-0 +11875-3 0 00172
>2 37852 101.7026 233.4847 0255574 288.8425 068.5226 14.77447189000225
>OBJECT E
>1 37853U 11061E   11302.94060934 +.00035908 +00000-0 +29140-2 0 00036
>2 37853 101.6965 233.4869 0254859 289.2129 068.1595 14.77516832000229
>OBJECT F
>1 37854U 11061F   11303.54982327  .00014649  00000-0  11859-2 0    30
>2 37854 101.6986 234.3636 0256120 286.9239 070.4027 14.77691305   296
>OBJECT G
>1 37855U 11061G   11302.87272701  .00005061  00000-0  41578-3 0    34
>2 37855 101.7081 233.4066 0257546 289.0631 068.2617 14.77654712   194
>OBJECT H
>1 37856U 11061H   11303.53330434  .00817553  77249-5  81830-3 0    44
>2 37856 107.3170 237.6855 0390613 329.7694 028.1472 15.39999395   318
>
>On 10/30/11 10:56 AM, James Cutler wrote:
>>Not sure which object we are yet, more later.
>>
>>
>>OBJECT C
>>1 37851U 11061C   11302.94063822 +.00148715 +00000-0 +11864-1 0 00048
>>2 37851 101.7071 233.4846 0255164 289.2247 068.1438 14.77565457000225
>>OBJECT D
>>1 37852U 11061D   11302.94064686 +.00001317 +00000-0 +11875-3 0 00172
>>2 37852 101.7026 233.4847 0255574 288.8425 068.5226 14.77447189000225
>>OBJECT E
>>1 37853U 11061E   11302.94060934 +.00035908 +00000-0 +29140-2 0 00036
>>2 37853 101.6965 233.4869 0254859 289.2129 068.1595 14.77516832000229
>>OBJECT F
>>1 37854U 11061F   11302.87272970  .00031269  00000-0  25123-2 0    26
>>2 37854 101.6987 233.3835 0256260 288.7205 068.6394 14.77687338   191
>>OBJECT G
>>1 37855U 11061G   11302.87272701  .00005061  00000-0  41578-3 0    34
>>2 37855 101.7081 233.4066 0257546 289.0631 068.2617 14.77654712   194
>>OBJECT H
>>1 37856U 11061H   11302.94848390 +.00836374 +77089-5 +85340-3 0 00081
>>2 37856 107.3183 236.3111 0393860 331.0855 026.9009 15.39065939000225
>>
>>--
>>James Cutler, Assistant Professor
>>University of Michigan
>>Department of Aerospace Engineering
>>1320 Beal Avenue
>>3013 FXB Building
>>Ann Arbor, MI 48109-2140
>>Ph: 734-615-7238
>>Fax: 734-763-0578
>><http://www.umich.edu/%7Ejwcutler/>http://www.umich.edu/~jwcutler/
>>
>>
>
>
>--
>James Cutler, Assistant Professor
>University of Michigan
>Department of Aerospace Engineering
>1320 Beal Avenue
>3013 FXB Building
>Ann Arbor, MI 48109-2140
>Ph: 734-615-7238
>Fax: 734-763-0578
><http://www.umich.edu/~jwcutler/>http://www.umich.edu/~jwcutler/
>
>


Mark L. Hammond  [N8MH]

------------------------------

Message: 2
Date: Sun, 30 Oct 2011 22:17:28 +0530
From: Sandeep Shah <vu3sxe@xxxxx.xxx>
To: amsat-bb@xxxxx.xxxx vuhams@xxxxxxxxxxx.xxx
Subject: [amsat-bb] SRM not heard
Message-ID: <4EAD7FA0.5040807@xxxxx.xxx>
Content-Type: text/plain; charset=ISO-8859-1; format=flowed



SRM not heard Orbit 261..

--
Regards,
Sundeep Shah/Vu3sxe
Bangalore, India,
0 94484 26365.



------------------------------

Message: 3
Date: Sun, 30 Oct 2011 16:42:07 +0000
From: "Nigel A. Gunn, W8IFF/G8IFF" <nigel@xxxxx.xxx>
To: amsat-bb@xxxxx.xxx
Subject: [amsat-bb] New Launch
Message-ID: <4EAD7E5F.4010407@xxxxx.xxx>
Content-Type: text/plain; charset=ISO-8859-1; format=flowed

Who launched these?

OBJECT A
1 37849U 11061A   11302.66421759 +.00000178 +00000-0 +10000-3 0 00099
2 37849 098.7116 238.9909 0001984 118.3667 333.6358 14.22213241000181
OBJECT B
1 37850U 11061B   11302.62545336 +.00000480 +00000-0 +51357-4 0 00069
2 37850 101.6952 233.0228 0253352 289.9995 191.7441 14.77439893000169
OBJECT C
1 37851U 11061C   11302.94063822 +.00148715 +00000-0 +11864-1 0 00048
2 37851 101.7071 233.4846 0255164 289.2247 068.1438 14.77565457000225
OBJECT D
1 37852U 11061D   11302.94064686 +.00001317 +00000-0 +11875-3 0 00172
2 37852 101.7026 233.4847 0255574 288.8425 068.5226 14.77447189000225
OBJECT E
1 37853U 11061E   11302.94060934 +.00035908 +00000-0 +29140-2 0 00036
2 37853 101.6965 233.4869 0254859 289.2129 068.1595 14.77516832000229
OBJECT F
1 37854U 11061F   11303.54982327  .00014649  00000-0  11859-2 0    30
2 37854 101.6986 234.3636 0256120 286.9239 070.4027 14.77691305   296
OBJECT G
1 37855U 11061G   11302.87272701  .00005061  00000-0  41578-3 0    34
2 37855 101.7081 233.4066 0257546 289.0631 068.2617 14.77654712   194
OBJECT H
1 37856U 11061H   11303.53330434  .00817553  77249-5  81830-3 0    44
2 37856 107.3170 237.6855 0390613 329.7694 028.1472 15.39999395   318
